Wind_Speed
9 4 3 4 6 9 9 10 11 10 10 10 9 7 7 6 7 8 9 9 6 4 4 5 6 7 8 8 13 25 24 20 22 23 21 12 6 18 25 25 24 23 19 16 18 18 15 14 14 12 11 9 7 6 5 5 5 6 7 5 4 4 4 3 2 2 3 3 4 6 8 11 13 15 18 20 22 23 25 27 29 31 32 32 32 32
6 4 5 7 10 13 11 10 10 9 8 9 7 6 6 5 7 8 10 10 3 1 3 5 6 7 9 12 17 19 15 14 13 8 8 14 22 24 25 24 22 21 18 19 22 22 22 21 21 20 19 18 16 14 11 9 8 7 7 7 7 6 6 5 3 2 2 1 1 2 4 6 7 9 12 13 15 17 20 23 25 28 29 30 31 31
3 4 9 13 13 12 11 10 10 9 7 7 6 5 5 5 7 8 8 6 1 2 3 5 6 6 10 16 16 14 12 5 9 17 19 22 25 23 23 21 19 19 19 22 24 25 26 25 25 26 26 25 23 21 19 16 13 10 9 8 7 7 6 6 6 4 3 2 2 2 3 4 4 6 9 10 12 13 14 16 19 21 23 24 26 27
4 5 11 15 13 10 10 9 8 8 5 4 4 4 5 5 5 5 3 2 3 3 6 7 6 5 10 14 12 15 11 10 24 26 23 24 25 23 22 19 19 20 21 24 26 27 27 27 28 28 28 27 27 26 26 24 21 18 16 14 11 8 6 5 5 4 3 2 2 2 2 3 4 6 9 9 11 12 12 14 15 16 16 18 19 20
6 7 8 8 9 8 7 7 7 6 4 4 5 5 7 7 6 5 4 5 5 6 5 5 5 4 7 8 7 10 2 16 22 23 23 23 23 22 21 20 20 21 22 25 27 28 29 29 29 29 29 28 29 30 30 29 27 25 24 23 21 18 14 11 8 5 5 4 3 3 2 1 0 2 5 7 8 9 9 11 11 12 12 13 13 14
7 8 6 4 5 4 4 6 6 4 3 5 5 5 6 5 4 4 6 6 4 5 2 2 2 3 4 5 8 8 3 11 14 17 18 19 21 21 21 19 19 20 22 25 26 28 30 30 30 29 29 29 30 31 31 31 29 29 29 28 27 26 24 21 17 15 14 13 10 8 6 4 3 4 4 6 8 9 10 11 11 11 11 11 11 12
3 2 2 1 3 3 3 6 7 4 3 4 3 2 3 2 2 3 4 2 1 3 3 1 1 4 4 5 11 7 6 10 10 11 11 17 19 19 20 17 16 19 21 24 27 28 29 30 30 30 29 29 30 30 30 30 30 30 30 30 29 29 28 28 25 23 24 23 19 16 12 9 6 5 3 2 6 8 9 10 11 11 11 11 10 11
3 3 4 2 3 3 4 5 5 5 4 3 1 3 4 3 2 2 1 2 3 4 5 5 4 5 5 5 11 6 10 10 8 8 9 15 18 19 20 17 16 18 19 23 26 27 29 30 31 31 30 30 29 28 28 28 29 30 30 30 30 29 30 30 28 28 28 28 26 23 19 15 12 9 6 3 4 7 8 9 10 10 10 10 9 9
1 3 2 3 4 4 4 2 2 4 4 2 1 2 2 2 1 2 3 4 3 3 4 5 5 3 5 5 8 6 10 8 7 8 8 12 16 18 18 16 15 16 18 22 24 26 28 29 30 29 29 29 28 28 28 28 29 28 29 29 28 29 30 29 29 29 29 29 28 26 23 20 17 14 11 9 6 7 8 10 11 11 11 11 10 9
1 3 1 3 4 3 3 1 4 0 2 2 1 1 1 2 4 4 4 3 2 3 4 5 6 3 4 6 5 4 7 6 7 7 7 13 17 17 16 15 14 14 17 20 23 26 27 28 27 27 27 27 27 27 26 27 27 27 27 26 27 28 28 27 27 27 27 27 27 26 25 23 22 20 17 15 12 10 9 9 10 12 13 13 13 12
0 4 1 2 4 2 4 2 4 3 1 0 1 2 3 5 4 3 3 1 1 3 6 8 10 8 3 5 2 2 5 9 9 7 7 12 17 17 15 14 14 14 16 18 22 24 25 26 24 24 24 25 25 24 23 24 24 24 24 24 24 24 24 25 24 25 26 26 26 26 24 23 23 22 22 20 19 17 15 13 12 12 12 13 14 16
2 2 1 4 6 3 5 2 3 3 2 2 2 2 4 4 1 1 0 2 1 4 5 5 7 10 4 4 2 5 5 10 10 9 9 10 14 17 16 14 14 15 15 16 20 23 24 24 22 22 22 22 21 21 21 21 21 21 21 21 21 21 21 22 22 23 24 24 25 25 24 23 22 22 22 22 22 21 20 18 16 15 14 13 13 15
2 4 4 2 3 4 3 2 2 3 3 3 1 0 2 3 1 0 0 2 3 5 3 5 3 4 5 5 4 5 7 5 7 12 14 14 17 17 15 14 15 16 14 14 18 22 23 22 22 21 21 21 20 20 20 19 19 19 19 19 19 20 20 21 21 22 23 23 23 23 23 23 22 21 21 20 21 21 20 20 19 18 17 16 15 14
2 1 4 3 1 5 6 3 1 2 1 4 3 3 3 1 2 3 2 2 3 3 2 4 6 1 3 4 3 6 8 10 16 20 20 20 20 19 16 15 16 14 12 13 17 21 21 21 20 20 20 20 19 19 18 18 18 18 18 18 18 18 19 20 21 23 23 23 22 22 21 22 22 21 21 20 20 19 19 19 19 19 19 18 17 16
2 3 3 3 1 6 8 4 2 1 3 6 4 4 4 3 3 4 3 3 4 3 3 2 2 1 2 1 3 9 12 17 22 23 22 22 20 18 17 15 13 12 11 14 17 19 19 18 18 18 18 18 17 17 16 16 16 16 16 16 16 17 18 19 20 22 22 22 21 20 20 20 20 21 21 21 20 19 19 18 18 18 19 19 18 17
1 3 3 2 2 7 5 3 1 3 1 3 0 2 2 3 3 3 4 4 3 4 4 2 2 3 0 4 7 10 13 16 19 19 20 19 17 17 16 14 12 11 12 14 16 17 17 15 15 15 15 15 15 15 15 15 15 14 14 14 15 16 17 18 19 19 20 20 19 19 18 18 18 19 19 20 20 20 20 19 19 18 18 19 19 19
2 3 2 2 1 4 2 1 2 2 0 1 2 1 3 2 2 2 4 4 3 4 6 4 4 4 1 3 6 9 10 11 11 14 16 15 15 16 14 12 11 12 14 15 15 15 13 13 13 13 13 13 13 14 14 14 14 13 13 14 15 16 16 16 16 17 17 17 17 16 16 16 16 16 17 18 19 20 20 20 19 19 19 19 19 19
2 3 3 3 2 2 1 1 2 0 2 2 1 2 2 1 1 1 3 3 4 6 5 6 7 7 4 2 3 7 8 8 7 9 12 13 14 13 12 11 11 13 14 13 12 11 10 10 10 10 11 11 12 12 13 13 13 14 15 16 17 17 17 17 17 18 18 16 15 14 13 13 13 14 14 15 16 17 18 19 19 19 19 19 19 19
0 2 4 1 1 1 1 1 1 1 2 3 2 1 1 0 1 2 2 2 5 6 4 5 8 7 5 3 2 6 7 8 7 7 8 10 11 12 11 10 10 11 11 10 9 8 8 8 7 8 9 9 10 11 11 12 13 14 15 16 17 18 19 20 20 21 20 18 17 15 14 13 13 13 12 12 13 14 15 17 18 19 19 19 19 20
2 1 2 1 2 2 2 1 2 2 2 3 1 2 1 2 2 2 2 2 4 6 5 5 6 5 3 2 2 5 8 9 8 7 6 8 11 11 10 9 9 9 8 7 7 5 5 5 5 6 7 8 9 10 11 12 14 15 16 16 17 19 20 21 22 22 21 20 19 18 17 16 16 15 15 14 13 13 13 14 16 17 19 20 21 21
1 2 2 1 1 1 0 2 3 1 2 2 1 2 1 1 1 2 2 2 3 5 5 5 6 4 1 3 3 6 7 7 7 7 6 8 11 9 9 9 7 6 5 4 3 3 4 6 7 8 9 10 11 12 13 14 15 16 17 19 20 21 22 22 23 22 22 21 21 20 19 19 18 18 18 18 17 16 15 15 15 15 17 18 19 21
0 2 1 1 2 2 3 3 1 1 4 1 3 2 3 2 1 2 4 4 3 3 4 5 7 4 1 2 4 6 5 6 9 9 8 9 11 10 9 9 8 6 5 3 2 3 5 7 8 9 10 11 12 13 13 14 15 17 18 20 21 22 23 24 24 24 24 23 23 23 22 22 22 21 21 20 19 19 18 18 17 17 17 17 18 19
3 2 1 2 4 6 9 9 5 5 5 4 4 3 3 3 3 3 5 4 2 4 4 5 6 3 1 2 3 6 6 9 12 12 11 12 12 11 10 8 6 4 2 1 2 3 4 5 6 7 8 9 10 10 12 13 15 16 18 19 19 20 21 22 22 23 23 23 23 24 24 24 25 25 25 25 23 22 21 20 19 19 19 19 19 20
4 2 1 3 4 6 9 8 3 5 3 2 2 0 0 2 2 3 3 2 0 3 4 4 5 3 2 2 2 7 9 11 12 12 12 13 13 11 10 8 6 4 1 1 2 1 1 2 3 4 5 6 7 9 10 12 13 14 15 16 17 17 18 18 19 20 21 22 22 23 24 25 26 27 28 28 28 27 26 25 23 23 22 22 22 21
0 1 1 0 3 4 6 5 2 5 4 1 2 2 1 3 3 2 1 1 2 5 6 5 5 2 1 2 1 6 7 7 9 11 11 12 13 12 10 9 7 6 5 4 3 2 2 2 2 2 4 5 6 8 9 10 12 13 14 15 15 16 16 16 17 18 19 20 21 22 23 24 25 26 28 29 30 31 31 30 30 29 28 27 26 25
1 1 2 2 4 5 5 4 1 2 2 1 2 4 3 4 5 4 2 3 4 4 4 4 5 3 2 4 4 4 5 5 7 10 12 12 13 13 12 10 9 7 7 6 4 2 1 1 2 3 5 6 7 8 9 10 11 12 13 14 15 16 16 17 18 19 20 21 22 23 24 25 26 27 28 29 31 32 32 33 33 34 34 33 31 29
0 1 3 5 5 6 7 6 4 3 3 4 6 7 7 7 6 4 3 6 5 3 4 8 9 8 7 8 8 2 4 5 6 9 12 12 12 12 11 10 8 7 7 6 4 2 3 4 5 6 6 7 8 8 9 10 10 11 12 12 14 15 16 18 19 20 21 22 23 24 26 27 28 29 30 31 32 33 34 35 35 36 36 37 37 36
2 3 5 6 7 8 8 9 9 8 6 7 8 9 10 9 7 7 8 7 3 3 7 10 10 10 10 10 10 7 3 5 7 9 11 12 12 11 9 7 6 6 7 6 6 6 6 7 8 8 8 9 9 10 11 12 13 14 15 15 16 17 18 20 21 21 22 23 25 26 27 29 30 31 32 33 34 35 36 37 38 38 39 39 40 40
2 3 5 4 6 8 9 9 9 7 7 7 9 10 11 12 12 12 10 8 5 6 9 10 12 13 11 11 11 11 11 9 6 4 6 8 9 8 6 5 5 6 6 7 8 8 8 9 10 10 11 11 11 12 13 15 16 17 17 18 19 20 21 22 23 23 24 25 27 29 30 32 33 34 35 36 37 37 38 39 40 41 42 43 43 43
2 2 3 3 5 8 9 8 7 6 7 9 11 12 13 15 15 12 11 10 9 10 11 12 14 14 12 13 11 8 7 3 3 4 4 4 5 5 4 3 5 6 7 9 11 11 11 11 12 13 13 13 13 13 14 16 17 18 18 19 20 21 21 22 23 24 26 29 32 34 35 36 37 39 40 40 40 40 40 41 42 43 44 45 45 46
1 1 0 1 3 7 8 7 5 6 8 10 12 13 15 15 14 12 12 11 10 11 13 13 14 13 12 9 5 1 3 4 5 4 3 3 3 3 2 4 5 7 8 9 11 13 13 14 14 15 15 15 15 15 16 18 18 18 18 18 19 20 21 22 23 26 30 34 37 38 39 40 41 43 44 45 45 45 44 44 44 44 45 45 46 47
1 1 1 1 2 7 9 7 6 6 7 10 14 17 17 14 12 11 10 9 10 12 13 12 12 10 5 0 3 4 4 4 4 3 3 3 2 1 4 6 7 8 9 9 11 12 14 16 17 17 16 16 16 17 18 19 18 18 18 18 20 21 21 22 24 28 34 38 39 40 41 41 43 45 47 48 48 48 48 48 48 47 47 47 47 47
2 2 1 1 3 7 9 6 1 1 4 8 12 14 14 13 13 13 11 11 13 12 10 10 8 5 3 3 4 3 3 4 3 2 2 1 2 4 7 8 9 9 8 9 10 11 13 15 16 17 17 17 17 17 16 15 14 15 16 18 20 21 23 26 29 34 38 40 40 41 42 42 43 45 47 48 48 48 48 49 50 50 50 50 49 49
4 4 3 3 2 5 6 1 4 1 7 8 4 5 9 11 12 12 11 11 11 8 7 7 4 3 4 3 4 3 3 1 3 5 5 6 6 8 10 10 9 7 7 8 9 10 12 13 15 16 17 16 15 13 12 12 14 16 18 20 22 25 27 31 35 38 41 42 42 43 43 43 44 46 47 48 48 48 48 49 49 49 50 51 51 53
4 4 3 2 2 3 3 1 2 8 8 4 1 4 6 7 7 9 10 10 9 9 9 9 6 5 7 7 6 4 1 3 6 8 10 10 10 12 13 11 7 6 8 9 10 11 12 13 14 15 15 13 12 13 15 18 21 23 25 26 27 30 32 34 37 40 41 43 44 45 45 45 45 47 48 49 49 49 49 48 48 48 49 49 51 54
5 4 3 2 3 3 2 5 8 8 5 3 4 3 1 2 4 5 7 8 9 9 8 6 5 3 10 11 6 2 2 5 8 12 13 12 12 13 13 10 7 7 9 9 10 12 13 14 14 14 14 15 16 19 23 26 28 30 31 31 32 34 36 37 39 41 43 44 46 47 47 47 47 48 50 50 49 49 49 48 49 50 50 49 51 54
7 5 3 3 4 4 5 7 8 8 8 7 6 3 2 2 3 3 2 5 6 6 5 3 2 5 9 7 2 1 4 5 7 12 12 6 5 7 8 9 8 9 9 10 12 13 14 15 15 15 17 21 24 27 29 30 32 33 34 36 37 38 40 41 43 45 47 48 49 49 49 48 48 50 51 50 49 49 50 50 51 52 51 50 52 54
5 5 5 4 4 4 5 6 6 7 9 6 3 2 2 4 3 2 1 3 4 6 6 5 5 6 7 4 1 1 3 3 4 8 5 3 1 3 4 7 9 9 10 12 14 16 16 16 17 20 25 27 28 29 30 31 33 35 36 38 39 40 43 45 47 49 49 50 50 49 49 49 49 50 50 50 49 49 51 52 53 53 52 51 52 55
0 1 4 3 5 5 5 6 6 6 6 3 3 1 2 5 7 6 3 4 3 3 4 10 9 5 5 2 2 2 1 0 4 7 5 3 7 9 8 10 11 12 14 16 18 19 19 20 23 27 30 30 30 31 32 33 34 35 37 38 40 43 46 47 49 50 50 50 50 50 50 49 50 50 49 50 50 51 52 54 55 55 54 53 53 55
1 0 3 4 6 7 7 7 5 5 4 3 5 5 5 4 8 7 6 6 3 6 10 14 12 7 4 2 4 4 5 5 7 9 10 11 14 14 13 13 13 14 16 18 20 21 22 24 28 31 31 30 31 32 32 33 34 35 38 41 43 45 47 48 49 50 50 51 51 51 50 50 50 50 50 50 52 53 53 54 54 54 53 52 52 53
1 1 3 6 8 9 10 7 5 5 4 5 8 12 10 5 5 1 7 5 7 12 11 12 10 6 2 4 7 7 10 11 11 13 15 16 17 17 16 14 15 16 17 19 21 23 25 28 30 30 30 30 31 31 31 33 35 38 41 44 45 46 47 48 49 49 50 51 51 51 51 51 50 50 51 51 52 52 53 51 50 50 49 49 49 49
3 1 2 5 6 6 7 6 6 5 4 6 8 13 12 5 1 5 5 3 10 15 14 11 10 7 7 10 11 13 15 14 14 15 16 16 17 17 16 16 15 16 18 20 24 27 29 30 30 30 30 29 29 30 31 34 38 41 43 45 45 46 46 47 48 49 50 51 51 52 52 52 51 51 52 52 51 51 51 49 46 45 45 45 45 46
4 3 3 5 5 4 5 6 6 5 3 8 8 5 7 5 4 7 6 5 10 15 15 15 13 12 13 15 15 15 15 14 14 15 15 15 16 16 16 17 17 18 21 24 27 29 29 30 30 30 29 28 28 31 34 38 41 43 44 44 44 45 46 46 47 48 50 51 52 52 52 52 51 51 50 49 48 48 48 47 45 43 42 42 42 43
3 4 3 3 4 5 4 6 5 4 6 12 11 5 7 10 11 13 10 9 12 16 17 16 15 15 15 15 15 15 15 15 16 15 15 16 17 16 17 19 20 22 24 26 28 29 29 29 30 29 28 28 30 33 37 39 42 43 43 42 43 44 45 46 47 48 49 50 51 51 51 50 50 49 47 47 46 46 45 44 43 42 41 41 41 42
6 8 8 7 5 5 5 6 4 2 6 12 16 15 15 16 19 20 16 13 14 16 17 17 17 17 15 13 14 15 16 17 17 16 17 17 17 18 20 22 23 24 26 27 28 28 28 29 29 28 27 29 32 36 38 40 41 41 41 41 41 42 44 46 47 48 49 49 50 49 49 49 47 46 44 43 42 42 43 42 42 42 41 41 41 42
9 11 9 6 5 5 7 10 9 10 14 14 17 19 19 20 24 25 23 21 22 22 23 22 20 18 15 15 16 16 17 18 18 18 19 18 19 20 21 22 23 25 26 27 27 27 28 28 27 27 29 32 34 37 39 39 38 38 39 39 40 41 43 45 46 47 48 48 48 48 47 46 45 43 42 41 41 41 42 42 42 42 41 41 42 43
9 15 11 5 6 7 6 6 8 12 19 20 18 20 22 24 28 29 28 28 27 26 25 23 20 19 18 18 18 18 18 19 19 20 21 21 22 22 22 23 25 26 27 27 27 27 27 26 26 28 31 34 36 38 39 37 35 35 36 37 38 40 42 43 44 46 47 47 47 46 44 44 44 44 44 43 42 42 42 41 41 41 41 42 42 43
8 13 10 6 9 9 6 7 14 19 23 24 23 23 23 25 27 27 28 29 26 23 21 20 19 20 20 19 19 19 20 20 20 21 21 22 23 23 24 25 26 26 26 26 27 27 26 26 27 30 33 36 37 38 37 35 33 33 34 35 37 39 41 42 43 45 46 45 44 43 43 44 45 46 46 45 43 42 42 41 41 40 40 40 41 43
11 10 7 5 6 7 6 9 14 17 18 22 26 27 27 29 29 28 29 29 26 24 22 20 19 20 20 21 21 21 21 21 20 21 21 22 23 24 25 25 25 25 26 26 26 25 25 27 29 32 35 36 36 36 35 33 32 31 32 34 36 38 40 41 42 44 44 43 43 44 45 45 46 46 46 45 44 43 42 40 40 39 40 40 39 39
12 9 7 5 5 6 6 8 11 9 9 16 24 27 26 27 26 26 27 26 25 25 24 22 20 21 21 22 22 22 22 22 21 22 22 23 23 24 24 24 24 25 26 25 25 25 26 28 31 33 35 35 34 34 33 32 30 30 31 33 34 36 38 40 42 43 43 42 43 45 46 46 46 45 45 45 45 44 43 41 39 37 38 39 38 36
15 11 10 8 7 8 11 14 17 14 12 17 24 25 25 23 21 21 23 23 23 24 23 22 22 23 23 23 23 23 23 23 22 23 23 23 23 23 23 24 25 25 25 24 24 25 27 30 32 33 34 33 32 31 31 30 29 29 30 31 33 35 36 38 40 42 42 42 44 45 45 46 46 45 44 44 44 44 44 44 42 39 38 37 37 37
Wind_Direction
177 169 191 197 225 236 236 233 238 244 249 264 270 270 280 285 281 277 280 285 297 300 277 277 286 289 291 286 273 274 276 275 273 277 284 298 44 79 84 82 75 71 65 62 64 62 64 67 67 69 67 66 72 78 87 113 129 132 127 107 67 70 83 76 37 352 343 329 304 291 281 273 267 261 257 254 252 250 249 249 250 252 254 256 257 257
172 191 219 210 226 240 249 260 267 274 281 286 286 285 285 282 279 279 282 286 317 42 273 294 295 292 298 285 275 276 278 276 281 312 12 57 73 78 80 77 74 73 68 67 66 64 66 69 70 70 70 70 70 71 72 76 83 97 113 104 83 79 94 108 114 88 67 56 345 316 303 296 287 277 273 269 265 260 256 255 256 257 260 262 264 264
193 224 231 226 233 245 256 268 274 275 283 291 292 299 290 272 280 283 276 277 77 114 284 308 296 297 292 279 279 280 272 295 58 72 74 79 78 76 77 76 76 73 67 66 64 63 65 67 69 69 68 67 67 68 69 69 70 76 87 91 92 96 105 123 140 151 147 152 176 186 225 260 267 266 275 282 282 280 276 271 268 268 270 271 270 270
199 219 231 228 233 248 257 263 271 269 259 258 262 276 274 267 275 277 276 335 15 309 287 295 290 288 278 274 280 272 261 78 80 81 79 82 82 79 80 81 82 77 69 67 65 65 65 66 67 67 66 66 66 67 66 65 65 65 65 61 63 66 65 85 119 147 145 139 148 153 204 245 257 265 279 289 290 289 290 287 284 283 282 280 279 277
232 256 258 229 226 245 261 270 272 270 268 253 239 240 255 261 262 269 322 349 337 307 289 296 295 260 263 287 299 271 211 85 84 83 77 78 79 77 77 77 77 76 72 70 67 65 67 67 66 65 64 63 63 64 63 63 62 62 61 58 56 54 49 51 58 60 55 57 67 85 107 126 233 304 317 319 308 302 303 303 301 300 297 295 293 289
246 264 266 223 219 240 255 264 255 242 270 270 246 245 257 270 285 304 337 353 340 304 298 46 343 252 257 299 285 265 112 85 82 84 80 78 77 75 72 69 69 69 70 70 68 67 68 69 69 67 65 62 62 62 62 62 62 62 62 61 59 58 55 55 54 50 45 43 41 43 50 52 55 54 28 356 332 323 321 321 323 320 315 313 311 307
229 183 85 145 198 202 219 255 253 221 242 260 242 300 320 359 360 342 348 5 288 271 252 157 281 264 260 265 261 251 113 96 85 84 84 80 79 77 72 66 64 65 66 69 71 69 67 70 71 69 67 66 65 64 64 63 62 60 60 59 58 58 57 56 55 52 50 48 45 41 41 40 42 56 58 355 321 321 324 325 329 331 326 324 322 318
197 144 70 62 179 190 208 248 247 188 195 244 242 349 5 36 13 348 336 244 238 271 266 228 223 264 267 251 250 216 116 106 100 93 88 83 80 79 77 66 60 64 65 67 70 70 68 69 70 70 71 70 69 68 65 63 60 58 56 56 56 55 54 53 52 49 47 45 44 42 40 38 35 34 31 16 333 328 334 334 336 338 334 333 334 332
81 143 154 168 171 206 211 258 293 172 178 219 227 359 32 60 300 260 243 249 264 306 284 216 182 236 269 257 245 181 121 116 124 116 104 94 85 80 79 70 60 63 67 70 71 72 71 70 70 71 71 70 70 67 64 62 59 57 55 54 53 50 49 49 47 45 43 41 40 38 37 35 33 30 24 19 6 345 342 341 341 341 341 339 337 339
33 121 201 177 167 213 197 356 349 53 174 205 242 317 324 233 241 237 234 253 299 292 258 214 177 189 277 266 239 163 133 139 138 127 115 106 99 90 85 80 70 63 67 73 75 76 75 74 72 72 71 69 66 64 61 60 58 55 53 49 46 44 43 43 41 40 39 38 35 34 32 31 30 29 24 20 15 5 354 348 343 340 341 340 337 336
154 91 18 233 215 195 120 84 9 42 100 66 320 329 301 259 226 214 219 174 336 266 247 230 197 185 276 284 224 116 147 153 142 138 130 112 106 101 94 89 84 74 70 74 79 80 80 79 75 73 72 68 65 62 59 55 52 50 47 42 41 40 37 35 34 34 34 33 32 31 30 28 27 25 24 21 17 13 6 359 352 343 339 337 334 332
217 148 227 229 223 174 112 87 20 38 53 41 21 1 329 300 184 128 132 119 175 252 270 276 199 183 214 284 327 37 100 146 150 149 143 121 105 100 97 94 90 82 76 76 80 81 81 79 75 71 70 67 64 60 56 52 48 44 41 38 36 35 34 33 32 32 32 30 28 27 26 25 25 23 22 20 18 15 10 5 359 350 343 337 331 327
217 207 193 175 216 181 127 60 8 4 37 86 89 42 330 319 333 282 240 163 219 237 270 358 43 179 219 275 311 36 59 89 117 124 127 120 109 103 101 98 92 87 81 76 78 79 78 75 71 67 64 61 57 53 50 48 44 42 39 36 33 33 32 29 29 32 32 30 27 23 20 19 20 20 20 19 17 15 11 8 4 358 352 345 336 326
289 259 166 141 302 191 172 155 201 302 145 159 172 162 177 279 298 270 259 244 252 250 272 13 28 343 240 279 329 75 70 64 83 100 110 112 110 106 102 94 90 90 83 76 78 78 77 75 71 66 62 58 55 51 47 43 40 38 38 36 35 35 32 28 27 29 29 29 26 21 16 12 11 12 14 15 14 12 9 7 5 3 360 356 349 339
282 320 180 173 181 177 184 202 208 138 168 195 198 162 176 208 231 249 266 261 261 283 294 352 31 254 214 224 80 91 87 79 84 95 101 102 104 103 99 94 92 94 89 83 81 79 77 73 69 64 60 57 54 50 47 45 43 39 38 37 35 34 33 28 27 27 27 27 23 18 13 8 5 4 6 8 8 8 6 4 3 1 0 359 357 352
215 257 195 158 159 167 189 256 336 50 162 231 213 111 206 214 210 254 271 261 273 298 288 250 231 260 233 99 100 95 88 85 88 94 97 98 100 99 96 96 98 99 97 91 85 80 76 70 64 59 56 54 52 50 47 46 45 45 44 42 39 38 35 31 29 28 27 25 20 14 10 6 3 360 358 359 359 359 360 359 358 358 357 356 356 355
212 233 151 117 191 178 177 320 21 48 349 355 53 159 236 210 135 267 274 273 269 267 262 248 260 282 332 101 111 101 93 94 95 94 96 99 100 99 99 104 106 102 97 90 83 79 73 65 59 54 50 49 47 46 47 46 45 43 41 38 37 36 35 33 33 31 30 27 20 13 8 4 360 356 354 354 354 354 354 355 354 353 352 350 350 350
234 260 211 182 223 227 139 17 351 7 120 116 209 237 271 352 64 232 257 268 255 255 250 244 263 277 277 250 138 120 111 107 108 104 104 106 106 107 113 116 111 102 96 90 84 79 74 67 62 57 53 49 47 44 43 42 39 35 31 29 28 28 29 30 29 29 28 27 23 17 11 4 360 357 354 352 350 348 348 348 348 349 348 347 346 345
357 274 258 241 234 217 115 44 340 336 84 138 208 272 78 201 276 243 224 226 242 259 255 231 248 257 253 256 148 142 136 123 124 125 120 122 124 123 123 121 115 110 106 100 95 89 84 79 69 63 57 49 47 43 37 34 31 29 27 26 27 27 26 24 22 22 20 19 18 16 12 8 3 360 355 352 348 343 340 339 340 342 342 342 342 341
46 243 269 10 74 108 47 49 202 287 358 74 35 346 122 167 213 226 248 255 240 259 267 244 246 251 256 316 50 121 135 136 139 136 128 130 132 134 136 136 133 127 121 114 108 102 87 73 54 44 39 35 34 30 25 22 19 19 19 18 18 18 17 16 15 14 13 12 10 8 7 5 2 1 359 356 352 345 339 335 332 331 331 333 334 333
67 240 249 312 15 58 64 194 168 195 326 47 50 291 250 167 227 271 277 247 231 257 270 261 255 253 321 357 54 100 115 130 134 127 122 125 131 144 156 159 163 157 150 146 127 90 46 27 19 17 18 19 20 20 19 16 12 11 8 6 6 6 6 7 6 6 4 3 2 1 360 358 358 358 358 357 355 353 349 342 336 330 326 325 325 324
155 232 228 295 301 268 245 255 18 319 281 228 154 206 260 245 219 283 267 230 216 237 240 255 262 253 274 345 63 92 90 104 122 127 134 143 151 166 177 183 189 186 175 171 118 51 32 23 19 20 21 20 18 17 15 12 10 7 4 2 2 1 0 360 359 359 357 356 356 356 355 353 352 352 352 353 353 353 352 350 347 343 337 332 328 326
63 99 149 267 259 254 266 278 308 312 280 238 199 211 257 241 177 212 257 254 250 261 250 249 254 239 235 327 68 105 110 118 134 141 148 161 173 181 187 191 190 184 169 121 14 7 15 25 27 27 27 24 18 13 9 6 4 3 1 359 357 356 355 354 353 352 351 350 351 351 350 348 347 345 345 344 344 345 346 345 344 343 340 339 335 333
60 96 199 256 257 265 272 273 337 13 1 249 262 290 233 256 197 189 233 229 217 274 277 263 256 249 262 308 67 111 119 128 145 155 159 172 184 190 194 191 186 189 208 277 292 308 24 43 46 37 20 13 8 3 1 358 355 353 352 350 348 347 345 343 341 339 338 338 339 341 341 340 339 339 338 337 337 337 337 337 336 335 334 334 333 332
18 199 149 233 282 288 282 276 346 19 32 51 307 335 350 298 299 307 268 209 207 225 232 250 259 240 224 269 189 134 131 139 158 173 182 187 193 198 198 192 188 190 187 193 206 180 127 75 57 23 355 353 353 350 346 345 344 342 341 340 338 335 333 331 328 327 325 325 325 327 327 328 328 328 328 328 327 327 328 329 329 328 327 327 327 327
206 196 131 178 248 254 262 267 247 54 51 73 274 280 279 269 268 288 309 261 252 234 227 256 264 262 287 269 234 178 156 164 179 193 201 204 203 201 196 190 191 199 197 189 187 174 67 10 356 344 340 339 337 336 335 332 330 329 329 330 329 327 325 324 322 321 320 320 320 320 319 318 318 318 319 320 320 319 319 319 320 321 321 321 320 320
129 237 202 207 231 244 255 271 288 308 293 272 278 279 275 267 253 251 256 255 272 309 275 261 265 277 287 281 279 274 157 175 206 212 207 205 203 195 191 193 202 220 223 216 226 275 320 331 336 338 337 336 332 330 328 324 322 321 319 318 317 317 316 316 316 316 316 316 316 316 316 315 314 314 314 315 315 314 314 314 314 314 315 316 315 315
123 241 229 221 235 247 257 270 283 292 280 270 278 278 275 276 261 243 247 257 294 316 268 264 276 282 281 282 295 311 280 251 271 254 219 202 197 192 193 207 225 245 246 243 264 290 306 311 318 327 330 332 331 330 330 329 329 326 323 323 321 318 316 314 313 314 315 316 317 317 316 315 314 314 313 311 311 310 310 309 309 309 310 310 310 310
123 242 248 249 253 259 266 270 274 281 284 281 278 275 277 275 264 256 257 256 251 255 261 273 280 278 280 285 289 297 296 293 294 253 194 171 175 182 193 218 242 264 263 258 271 282 285 289 295 301 308 312 315 319 324 325 326 326 325 327 326 322 321 318 316 316 318 318 319 319 318 317 317 316 314 312 310 309 308 307 307 307 307 307 307 306
149 234 252 266 270 269 264 266 275 279 278 275 269 267 267 264 264 268 271 265 257 257 267 275 277 276 279 284 287 295 299 312 90 109 122 125 153 172 185 234 258 272 272 266 272 275 275 280 286 288 291 296 298 303 308 311 314 316 316 319 322 321 320 318 315 315 317 319 320 321 319 318 317 316 315 314 312 311 309 307 306 305 304 304 304 304
218 217 129 74 292 280 270 271 276 262 261 268 267 263 259 261 268 271 269 270 270 269 270 270 273 274 274 279 294 88 121 103 95 103 116 126 148 161 211 272 277 283 284 281 282 280 277 281 287 289 290 293 295 298 302 303 304 304 305 310 314 314 313 311 309 311 315 318 320 320 319 319 318 318 317 316 315 314 312 310 308 305 303 302 301 301
291 261 8 52 264 270 276 280 272 259 266 269 263 258 255 258 263 261 259 263 262 267 273 271 269 270 264 167 108 127 120 96 91 100 102 110 138 211 275 281 284 287 291 294 295 292 289 288 288 289 291 294 299 303 306 305 301 298 300 304 306 305 305 303 303 307 311 315 317 318 318 318 318 317 316 316 315 314 313 311 309 307 305 303 301 299
186 173 204 215 240 267 273 281 319 306 271 263 255 252 252 253 255 257 257 254 251 256 264 265 260 250 212 143 137 145 108 85 59 34 22 321 277 268 274 280 284 288 294 302 307 306 303 302 300 298 298 300 304 308 309 305 299 296 297 298 298 297 297 297 300 305 310 314 316 317 317 317 316 315 314 314 312 311 310 309 307 306 305 303 301 299
179 161 187 214 231 261 258 278 71 204 246 256 239 222 242 250 251 254 257 252 249 248 253 256 235 176 175 163 134 113 99 71 337 321 298 284 271 264 273 278 278 284 294 301 307 308 308 312 316 314 309 306 301 296 291 288 289 292 293 293 293 293 295 298 303 308 313 316 317 316 316 315 314 312 311 310 309 308 306 305 304 302 301 300 299 297
193 184 202 218 220 247 243 193 241 240 243 258 181 204 241 246 236 246 261 261 257 258 262 267 257 194 150 132 125 113 80 292 293 291 286 283 274 267 271 272 265 274 290 298 306 312 314 314 314 312 309 303 291 285 288 293 297 300 300 300 300 301 303 305 309 313 316 316 316 315 314 312 311 308 307 307 306 304 303 301 299 298 297 296 295 294
200 202 214 216 225 252 245 230 243 255 268 272 250 231 204 193 212 238 267 263 249 251 255 262 266 177 129 124 128 132 312 295 286 290 294 292 281 270 262 255 256 273 287 300 307 309 312 310 305 303 303 301 299 300 302 304 305 307 308 309 311 311 312 313 314 316 316 315 314 313 311 309 307 305 304 304 303 302 300 298 296 295 295 293 292 292
198 202 216 226 233 237 235 238 255 284 288 267 258 260 116 145 193 195 242 254 236 239 243 218 176 118 122 123 109 336 320 319 302 303 312 313 282 267 250 250 268 282 290 304 308 304 303 301 299 301 303 306 307 306 306 307 309 311 313 314 315 316 316 316 315 315 314 312 311 310 309 307 305 305 304 304 303 300 298 296 294 294 293 292 290 290
194 198 196 219 244 231 239 255 258 272 271 249 239 306 69 90 94 114 199 269 264 269 255 189 145 119 118 112 59 306 322 352 310 301 329 63 37 310 272 266 280 291 298 304 304 301 299 298 300 306 309 310 310 309 309 310 312 313 314 314 315 315 314 314 313 312 312 311 310 310 309 308 307 307 306 304 301 298 296 295 294 293 292 291 290 289
97 199 171 209 247 233 241 254 241 255 268 215 185 283 91 91 58 36 337 286 287 270 183 144 134 123 120 140 257 213 152 125 267 271 276 314 319 311 294 284 285 289 295 298 297 296 297 298 303 307 310 311 311 311 312 312 312 313 313 314 314 313 313 313 312 312 312 312 312 311 310 310 309 307 304 302 300 298 296 295 294 294 293 292 290 290
75 140 160 209 235 231 234 244 242 254 256 197 199 217 193 120 65 35 308 278 210 174 159 147 148 145 138 206 235 188 179 213 246 266 274 287 298 296 290 289 289 288 291 292 292 293 294 298 303 307 310 311 312 313 313 312 312 313 314 314 314 313 313 313 313 313 313 313 313 312 311 310 308 306 305 303 301 300 299 298 298 298 297 296 294 292
163 192 204 214 225 230 232 241 255 254 231 207 196 182 166 105 65 227 264 257 187 189 184 170 173 177 191 243 235 223 234 245 255 271 280 284 287 286 285 286 285 285 287 288 288 291 294 300 305 308 309 311 311 311 311 312 313 314 314 314 315 315 315 315 315 315 315 314 314 313 311 310 310 309 308 306 305 305 304 303 303 303 302 300 298 296
146 135 231 222 220 227 229 234 255 265 232 201 186 173 160 118 56 223 227 189 188 197 196 196 213 237 255 257 251 247 252 257 264 273 280 283 284 283 283 282 280 281 282 284 287 292 297 303 306 307 308 309 309 310 312 313 314 315 315 316 316 317 317 317 317 317 316 315 314 313 313 313 313 313 312 311 311 310 308 308 309 308 307 306 304 302
169 166 225 222 203 206 228 231 243 269 220 160 141 141 165 176 228 237 223 206 208 210 208 213 230 247 251 252 254 252 254 262 269 274 278 283 284 282 279 278 279 279 281 284 289 295 300 304 306 307 307 307 308 311 313 314 315 316 316 317 318 319 319 318 318 317 316 315 315 315 316 316 316 315 315 315 315 314 312 312 313 312 311 310 308 306
200 180 206 225 185 173 213 225 207 213 200 176 171 202 219 218 241 251 239 220 214 212 210 214 231 249 252 248 247 249 257 267 271 274 280 284 282 278 275 275 277 278 281 287 293 298 302 305 305 305 305 306 310 313 315 316 317 317 318 320 321 320 319 319 317 316 316 317 317 318 318 318 318 318 318 318 317 316 315 316 316 314 313 311 309 306
211 198 208 233 223 185 211 235 217 232 235 201 196 215 230 236 247 255 255 247 235 228 229 238 254 265 263 252 249 255 265 272 275 279 283 282 277 272 270 271 273 276 283 290 295 299 302 303 302 302 303 307 312 315 316 317 317 318 321 323 322 321 319 318 318 318 319 319 320 321 321 321 320 319 318 318 319 318 317 317 316 313 312 310 307 304
223 224 222 233 255 250 248 252 258 274 269 239 213 219 235 247 257 261 261 258 255 256 259 262 266 268 262 255 255 259 265 271 278 282 281 277 271 268 268 270 273 279 286 291 295 299 301 300 299 300 305 310 315 317 317 317 318 321 323 323 321 319 318 318 319 320 321 322 323 324 324 321 320 321 322 323 323 321 319 317 314 311 309 307 305 303
237 241 239 236 253 257 253 243 242 254 259 254 244 240 245 255 263 265 263 260 261 262 262 262 262 261 258 256 256 260 265 271 276 278 276 272 269 268 271 274 278 284 289 292 296 299 299 298 299 304 309 314 317 317 316 317 321 323 323 321 319 319 319 320 321 322 324 326 326 325 324 323 324 326 327 327 325 322 319 316 313 309 306 304 303 301
235 240 240 232 237 243 243 240 246 252 257 260 260 256 255 258 260 260 261 263 263 262 261 260 257 252 251 256 262 267 271 273 273 272 270 267 269 271 274 278 282 287 290 294 298 299 298 299 303 308 312 315 316 315 315 319 323 323 321 319 319 320 320 321 323 325 327 327 325 326 328 329 330 329 327 325 323 320 318 316 313 309 306 305 303 302
242 244 243 232 238 250 248 238 245 255 260 258 257 258 259 261 260 259 262 263 263 261 260 257 252 248 251 262 270 272 272 272 270 268 266 267 270 273 276 280 284 288 291 295 297 296 297 302 306 310 313 314 314 314 316 320 324 323 320 319 320 321 321 323 326 328 328 327 328 332 334 333 331 329 326 324 322 320 318 317 315 310 306 305 305 301
243 246 250 247 247 253 248 233 234 244 254 253 254 258 261 262 261 260 261 262 262 261 257 251 248 251 256 263 269 270 272 272 270 268 268 270 272 275 279 282 286 289 293 295 294 294 298 303 307 310 312 312 312 314 317 321 323 322 319 320 321 322 324 328 330 329 329 332 335 337 336 333 330 329 326 324 322 320 318 319 317 312 306 305 305 300
235 236 239 241 243 246 249 245 240 238 243 250 256 262 265 265 262 258 258 262 264 261 255 250 249 253 259 264 269 271 272 272 270 271 272 273 274 277 280 283 287 291 292 292 292 295 300 304 307 310 310 311 312 314 317 321 322 320 318 320 322 324 329 332 330 329 333 338 339 338 337 333 330 328 326 325 323 320 318 317 318 317 314 311 308 303
Height
1521 1525 1528 1528 1525 1519 1515 1514 1513 1511 1511 1512 1512 1513 1514 1514 1513 1507 1503 1500 1499 1502 1501 1499 1500 1499 1497 1496 1490 1486 1484 1483 1480 1478 1478 1478 1480 1481 1481 1482 1483 1485 1487 1487 1485 1484 1483 1482 1480 1478 1477 1476 1476 1475 1475 1475 1476 1476 1476 1476 1477 1477 1478 1478 1479 1479 1480 1481 1482 1483 1484 1485 1486 1487 1488 1489 1491 1492 1493 1494 1494 1494 1495 1496 1498 1500
1521 1526 1525 1520 1517 1512 1510 1509 1508 1508 1509 1510 1512 1514 1514 1515 1512 1506 1503 1500 1499 1503 1503 1499 1500 1500 1497 1493 1486 1483 1483 1481 1479 1480 1480 1480 1481 1482 1483 1484 1486 1487 1488 1487 1485 1485 1484 1482 1481 1479 1478 1477 1477 1476 1476 1476 1476 1477 1477 1477 1477 1477 1477 1478 1478 1478 1479 1480 1481 1482 1483 1483 1485 1485 1486 1487 1488 1490 1491 1492 1492 1492 1493 1494 1495 1497
1524 1525 1519 1513 1511 1510 1509 1508 1508 1508 1509 1512 1513 1516 1518 1515 1511 1506 1501 1498 1500 1504 1503 1500 1501 1501 1496 1488 1482 1481 1481 1480 1480 1481 1482 1482 1482 1484 1485 1486 1486 1487 1488 1487 1486 1486 1485 1483 1482 1480 1479 1479 1479 1478 1478 1478 1478 1478 1478 1477 1477 1477 1477 1478 1478 1478 1477 1478 1479 1480 1481 1482 1484 1484 1485 1486 1486 1487 1488 1489 1490 1490 1491 1492 1493 1493
1524 1519 1511 1508 1508 1509 1509 1508 1507 1508 1509 1512 1514 1518 1518 1513 1512 1512 1504 1500 1501 1502 1502 1501 1502 1501 1495 1486 1480 1478 1479 1481 1482 1482 1484 1484 1484 1486 1487 1487 1487 1488 1488 1487 1487 1487 1486 1484 1482 1481 1481 1481 1481 1480 1480 1480 1480 1480 1480 1479 1479 1479 1478 1479 1479 1478 1477 1477 1478 1479 1480 1481 1482 1483 1484 1485 1485 1485 1486 1487 1487 1488 1488 1489 1489 1490
1514 1509 1505 1505 1506 1507 1509 1508 1507 1510 1512 1512 1512 1514 1514 1509 1510 1510 1505 1503 1503 1502 1500 1501 1504 1502 1492 1486 1481 1477 1478 1482 1483 1484 1487 1488 1488 1490 1490 1490 1491 1490 1489 1488 1487 1487 1486 1485 1483 1483 1483 1483 1482 1482 1482 1482 1482 1482 1482 1482 1481 1481 1480 1480 1480 1480 1478 1478 1478 1478 1479 1480 1481 1482 1482 1483 1483 1483 1484 1484 1485 1485 1486 1486 1486 1487
1508 1505 1504 1505 1505 1506 1509 1509 1507 1511 1515 1513 1509 1508 1508 1506 1507 1507 1506 1508 1511 1510 1502 1502 1513 1507 1489 1485 1483 1476 1479 1484 1485 1486 1489 1490 1491 1493 1494 1495 1495 1493 1491 1489 1488 1488 1487 1485 1485 1484 1484 1484 1484 1484 1485 1485 1485 1485 1484 1484 1484 1483 1482 1482 1482 1481 1480 1479 1478 1479 1479 1479 1480 1481 1481 1481 1481 1482 1482 1482 1482 1483 1483 1484 1484 1484
1504 1503 1503 1504 1506 1506 1509 1510 1507 1508 1515 1515 1509 1505 1505 1505 1507 1508 1509 1512 1516 1513 1503 1502 1515 1512 1494 1488 1482 1475 1481 1486 1487 1489 1491 1493 1494 1493 1496 1498 1498 1496 1494 1492 1489 1489 1489 1487 1486 1485 1485 1485 1486 1487 1488 1488 1488 1487 1487 1486 1486 1485 1484 1483 1483 1483 1481 1480 1480 1480 1480 1480 1480 1480 1481 1481 1481 1481 1481 1481 1481 1481 1481 1482 1482 1482
1501 1504 1505 1506 1507 1508 1511 1511 1505 1506 1513 1514 1507 1506 1506 1505 1508 1509 1510 1514 1513 1509 1505 1501 1507 1512 1504 1490 1476 1472 1482 1488 1489 1492 1493 1494 1496 1495 1495 1499 1500 1498 1496 1494 1491 1490 1490 1489 1488 1487 1487 1487 1488 1489 1490 1490 1490 1490 1489 1489 1489 1488 1486 1485 1485 1484 1482 1481 1481 1481 1481 1481 1481 1481 1481 1481 1481 1481 1480 1480 1480 1480 1479 1479 1480 1480
1501 1505 1507 1507 1510 1511 1510 1508 1503 1503 1509 1510 1507 1506 1506 1507 1509 1508 1510 1513 1509 1510 1512 1502 1501 1512 1504 1485 1470 1469 1481 1490 1491 1492 1493 1494 1497 1496 1496 1499 1501 1501 1498 1495 1493 1492 1491 1491 1491 1491 1491 1490 1490 1490 1491 1491 1491 1492 1492 1492 1491 1489 1487 1487 1486 1484 1482 1481 1481 1482 1482 1482 1482 1481 1481 1481 1480 1480 1480 1479 1479 1478 1478 1478 1478 1478
1503 1506 1506 1506 1509 1509 1506 1505 1504 1503 1505 1507 1507 1507 1506 1508 1508 1508 1511 1512 1512 1516 1515 1502 1500 1509 1501 1480 1470 1471 1479 1489 1491 1491 1493 1493 1494 1496 1496 1498 1501 1502 1500 1497 1495 1494 1492 1493 1494 1494 1493 1493 1492 1492 1493 1493 1494 1494 1494 1492 1490 1489 1489 1489 1487 1485 1483 1481 1481 1482 1483 1483 1482 1482 1481 1481 1480 1480 1479 1479 1478 1478 1477 1476 1476 1475
1504 1506 1506 1505 1505 1504 1504 1506 1506 1505 1506 1506 1507 1507 1508 1507 1506 1509 1510 1510 1517 1518 1508 1497 1493 1502 1503 1483 1470 1472 1475 1479 1486 1490 1493 1493 1493 1495 1496 1497 1500 1501 1501 1499 1496 1494 1493 1494 1496 1496 1495 1494 1494 1494 1494 1495 1495 1495 1494 1492 1490 1491 1492 1492 1489 1485 1482 1481 1481 1482 1483 1484 1483 1482 1481 1480 1480 1479 1479 1478 1478 1477 1477 1476 1475 1474
1505 1506 1505 1502 1502 1502 1504 1506 1507 1507 1507 1507 1508 1510 1512 1509 1507 1512 1513 1514 1523 1516 1498 1490 1486 1495 1503 1486 1469 1472 1473 1473 1480 1485 1490 1493 1495 1495 1496 1498 1499 1500 1502 1502 1499 1495 1494 1495 1497 1498 1496 1495 1495 1495 1496 1496 1496 1495 1494 1493 1493 1494 1495 1494 1491 1485 1481 1481 1481 1482 1483 1484 1483 1482 1481 1480 1479 1478 1478 1477 1477 1476 1476 1475 1475 1474
1503 1503 1501 1500 1501 1502 1504 1507 1509 1509 1508 1509 1510 1513 1518 1515 1512 1516 1516 1515 1518 1509 1495 1490 1488 1494 1496 1481 1471 1475 1478 1477 1478 1482 1488 1492 1494 1497 1498 1499 1499 1500 1504 1504 1500 1496 1496 1497 1498 1499 1497 1496 1496 1496 1497 1497 1497 1496 1496 1495 1495 1495 1495 1494 1491 1485 1481 1481 1481 1482 1483 1484 1484 1483 1481 1480 1479 1478 1478 1477 1476 1475 1475 1474 1474 1474
1502 1500 1499 1501 1501 1500 1502 1506 1508 1508 1509 1512 1510 1511 1517 1518 1520 1521 1515 1510 1507 1501 1495 1492 1495 1499 1491 1478 1476 1481 1483 1482 1481 1484 1489 1491 1494 1497 1499 1500 1500 1502 1505 1504 1500 1497 1498 1499 1500 1499 1498 1497 1497 1497 1498 1497 1497 1497 1498 1498 1497 1495 1494 1493 1490 1484 1481 1481 1482 1483 1484 1484 1485 1483 1481 1479 1479 1478 1478 1477 1476 1475 1474 1473 1473 1472
1507 1505 1500 1499 1499 1498 1499 1500 1501 1501 1505 1507 1502 1502 1508 1509 1516 1519 1512 1509 1507 1501 1498 1497 1498 1495 1487 1482 1483 1485 1486 1486 1486 1489 1492 1494 1496 1497 1499 1500 1502 1504 1505 1503 1500 1499 1500 1500 1501 1500 1499 1499 1499 1498 1498 1498 1498 1498 1499 1499 1497 1494 1493 1491 1489 1484 1481 1481 1482 1483 1484 1485 1485 1484 1482 1480 1478 1478 1477 1477 1476 1475 1474 1473 1472 1471
1507 1505 1496 1496 1497 1497 1499 1497 1496 1499 1502 1502 1497 1499 1505 1502 1504 1508 1506 1504 1506 1507 1504 1499 1494 1484 1480 1485 1487 1487 1489 1490 1491 1493 1494 1496 1498 1498 1500 1502 1504 1505 1504 1502 1501 1500 1501 1502 1502 1501 1500 1500 1500 1499 1499 1499 1499 1499 1499 1499 1496 1493 1491 1490 1488 1485 1482 1481 1482 1484 1485 1485 1484 1483 1481 1480 1478 1477 1477 1476 1475 1474 1473 1472 1471 1470
1505 1502 1494 1496 1497 1496 1498 1497 1496 1499 1501 1502 1502 1502 1502 1499 1498 1504 1506 1500 1503 1512 1505 1494 1491 1483 1479 1486 1488 1489 1491 1493 1495 1496 1497 1499 1499 1500 1502 1504 1505 1504 1502 1501 1501 1501 1502 1502 1502 1501 1501 1501 1500 1500 1499 1499 1499 1499 1499 1497 1494 1492 1490 1489 1488 1485 1482 1481 1483 1485 1485 1485 1484 1483 1481 1479 1478 1477 1476 1476 1475 1474 1473 1471 1470 1469
1502 1501 1494 1493 1496 1496 1497 1497 1496 1497 1499 1501 1503 1502 1499 1500 1500 1503 1510 1509 1509 1513 1502 1490 1492 1490 1486 1489 1489 1490 1493 1495 1497 1498 1499 1501 1501 1502 1503 1503 1503 1501 1500 1501 1500 1501 1502 1502 1502 1502 1501 1501 1501 1500 1500 1499 1499 1498 1497 1495 1493 1491 1490 1488 1486 1483 1481 1482 1484 1485 1486 1486 1485 1483 1481 1479 1477 1476 1475 1475 1474 1473 1472 1471 1470 1469
1498 1503 1497 1491 1495 1496 1495 1498 1499 1498 1498 1499 1500 1500 1500 1506 1506 1502 1508 1514 1513 1512 1503 1492 1491 1489 1486 1485 1485 1488 1493 1496 1498 1498 1500 1501 1501 1502 1502 1501 1500 1499 1500 1500 1500 1501 1501 1501 1502 1501 1501 1501 1500 1500 1500 1499 1498 1497 1495 1494 1493 1491 1489 1486 1483 1481 1481 1482 1484 1485 1485 1486 1485 1483 1482 1479 1478 1476 1475 1474 1474 1473 1472 1471 1469 1468
1497 1505 1503 1494 1494 1497 1496 1499 1501 1499 1499 1499 1501 1501 1500 1504 1507 1504 1505 1506 1507 1509 1505 1498 1494 1487 1482 1482 1483 1486 1490 1493 1496 1497 1498 1499 1499 1500 1500 1499 1499 1499 1500 1500 1501 1501 1501 1501 1501 1500 1501 1500 1500 1500 1499 1498 1497 1496 1495 1494 1492 1490 1487 1484 1482 1481 1482 1482 1483 1484 1484 1484 1484 1482 1481 1479 1477 1476 1475 1474 1473 1472 1471 1470 1468 1467
1497 1503 1505 1498 1495 1499 1500 1498 1498 1499 1499 1501 1504 1504 1502 1502 1504 1505 1504 1500 1502 1507 1506 1504 1501 1489 1483 1486 1486 1486 1489 1491 1493 1495 1497 1498 1498 1499 1499 1500 1500 1500 1500 1500 1500 1500 1500 1500 1499 1499 1499 1498 1497 1498 1497 1497 1497 1495 1494 1492 1489 1487 1485 1484 1483 1483 1483 1482 1482 1482 1482 1483 1482 1481 1480 1478 1476 1474 1473 1473 1472 1471 1470 1469 1468 1466
1500 1503 1506 1504 1501 1501 1498 1493 1493 1496 1497 1500 1504 1504 1502 1502 1504 1510 1509 1499 1497 1503 1502 1503 1502 1491 1486 1489 1487 1487 1490 1491 1492 1494 1496 1497 1497 1498 1499 1499 1499 1499 1499 1499 1499 1499 1498 1498 1498 1498 1497 1497 1496 1496 1496 1496 1495 1493 1492 1489 1488 1486 1484 1484 1483 1483 1483 1483 1482 1482 1481 1481 1480 1479 1478 1476 1475 1473 1472 1471 1470 1469 1469 1468 1468 1466
1501 1505 1509 1509 1504 1500 1496 1492 1493 1494 1493 1495 1500 1500 1499 1501 1504 1511 1512 1503 1499 1500 1496 1499 1501 1492 1489 1491 1488 1488 1490 1491 1493 1494 1494 1496 1496 1496 1497 1497 1497 1497 1498 1498 1498 1498 1498 1498 1498 1498 1497 1497 1497 1496 1496 1494 1493 1491 1490 1488 1487 1486 1485 1485 1484 1484 1483 1482 1482 1481 1480 1479 1478 1477 1476 1474 1473 1472 1471 1470 1469 1468 1468 1467 1466 1465
1503 1507 1511 1509 1502 1497 1493 1491 1492 1494 1494 1496 1497 1498 1500 1502 1503 1507 1508 1507 1510 1506 1499 1502 1502 1492 1489 1491 1490 1490 1490 1491 1493 1493 1493 1495 1494 1494 1495 1495 1496 1497 1497 1498 1498 1498 1498 1498 1498 1498 1498 1497 1497 1496 1495 1493 1492 1491 1489 1488 1487 1486 1486 1486 1485 1485 1484 1483 1482 1480 1479 1478 1477 1476 1474 1472 1471 1469 1468 1468 1467 1466 1466 1465 1463 1462
1506 1507 1509 1512 1509 1504 1500 1496 1496 1497 1499 1502 1503 1502 1503 1503 1504 1507 1506 1508 1512 1505 1500 1506 1503 1490 1489 1492 1491 1491 1492 1492 1493 1493 1492 1493 1493 1494 1494 1494 1495 1497 1497 1498 1498 1498 1498 1498 1498 1497 1497 1496 1495 1494 1493 1492 1492 1490 1489 1488 1487 1487 1487 1486 1485 1485 1483 1482 1481 1480 1479 1478 1476 1475 1473 1471 1469 1467 1466 1465 1464 1463 1461 1460 1458 1457
1506 1505 1506 1512 1515 1513 1508 1502 1500 1502 1504 1505 1505 1503 1502 1501 1502 1505 1506 1509 1509 1500 1499 1505 1500 1490 1489 1490 1489 1490 1492 1492 1492 1492 1491 1491 1492 1493 1493 1494 1495 1496 1497 1497 1497 1497 1497 1497 1497 1496 1496 1495 1494 1493 1493 1492 1491 1490 1489 1489 1487 1487 1486 1485 1484 1483 1482 1481 1479 1479 1478 1476 1475 1473 1471 1469 1467 1465 1464 1462 1461 1459 1457 1456 1454 1453
1505 1504 1504 1507 1509 1508 1506 1501 1499 1502 1506 1506 1504 1502 1502 1501 1501 1503 1506 1508 1506 1504 1504 1501 1494 1491 1491 1488 1487 1489 1491 1492 1491 1490 1490 1490 1491 1492 1492 1494 1495 1495 1496 1496 1496 1496 1496 1496 1495 1495 1494 1494 1493 1493 1492 1491 1491 1490 1489 1488 1487 1487 1485 1484 1483 1482 1481 1479 1478 1477 1475 1474 1472 1470 1469 1467 1465 1463 1461 1460 1458 1456 1454 1453 1451 1449
1505 1506 1503 1504 1505 1503 1502 1501 1500 1502 1504 1505 1504 1502 1500 1499 1499 1502 1504 1502 1503 1507 1505 1495 1491 1494 1492 1487 1487 1488 1489 1490 1489 1488 1489 1489 1490 1491 1492 1493 1494 1494 1494 1494 1494 1494 1494 1494 1493 1493 1493 1492 1492 1491 1491 1490 1489 1488 1488 1487 1486 1485 1484 1483 1482 1480 1479 1478 1476 1475 1473 1472 1470 1468 1466 1465 1462 1461 1459 1457 1455 1453 1452 1450 1448 1446
1505 1506 1502 1502 1505 1502 1501 1502 1501 1502 1503 1503 1503 1502 1500 1499 1497 1498 1499 1499 1500 1504 1500 1492 1492 1493 1490 1488 1487 1487 1487 1487 1486 1487 1488 1488 1490 1491 1491 1492 1493 1493 1493 1492 1492 1492 1491 1491 1491 1491 1491 1490 1490 1489 1488 1488 1487 1486 1486 1485 1484 1483 1482 1481 1480 1478 1477 1476 1475 1474 1472 1470 1469 1467 1465 1463 1460 1459 1457 1454 1452 1450 1448 1447 1445 1443
1505 1506 1502 1502 1504 1502 1501 1501 1501 1503 1504 1502 1502 1501 1498 1495 1494 1495 1497 1495 1496 1497 1494 1492 1492 1490 1487 1486 1486 1486 1486 1485 1485 1486 1487 1488 1489 1490 1491 1491 1491 1491 1491 1491 1490 1490 1490 1490 1489 1489 1489 1488 1488 1487 1486 1486 1485 1484 1483 1482 1481 1480 1479 1478 1476 1475 1474 1473 1471 1470 1468 1467 1465 1463 1462 1460 1458 1456 1454 1452 1450 1448 1446 1443 1441 1440
1504 1505 1501 1503 1506 1504 1501 1501 1502 1504 1503 1502 1501 1498 1495 1494 1494 1495 1495 1494 1494 1494 1491 1491 1492 1488 1485 1484 1484 1485 1485 1485 1486 1487 1487 1488 1488 1489 1489 1489 1489 1490 1489 1489 1489 1489 1489 1488 1488 1488 1487 1486 1486 1485 1484 1483 1482 1482 1481 1480 1479 1477 1476 1475 1473 1471 1470 1468 1467 1465 1463 1461 1459 1458 1456 1454 1453 1451 1449 1448 1446 1444 1442 1440 1438 1436
1503 1504 1502 1504 1510 1507 1500 1501 1504 1502 1502 1504 1499 1493 1491 1493 1494 1493 1492 1491 1492 1491 1490 1491 1490 1486 1483 1484 1485 1484 1484 1485 1486 1486 1487 1488 1487 1488 1488 1487 1488 1488 1488 1488 1489 1488 1488 1487 1486 1486 1485 1485 1484 1483 1482 1481 1480 1480 1479 1477 1476 1475 1474 1472 1470 1468 1466 1464 1462 1460 1458 1456 1454 1452 1450 1448 1446 1445 1443 1441 1439 1438 1436 1434 1433 1431
1502 1504 1504 1506 1511 1507 1500 1501 1504 1504 1507 1504 1492 1486 1488 1490 1490 1488 1488 1487 1486 1487 1489 1489 1485 1482 1482 1484 1484 1484 1484 1485 1485 1486 1486 1487 1486 1487 1486 1486 1486 1487 1487 1487 1487 1487 1487 1486 1485 1485 1484 1483 1483 1481 1480 1479 1478 1478 1476 1475 1474 1472 1471 1469 1467 1465 1463 1460 1458 1456 1453 1451 1449 1446 1444 1442 1440 1438 1436 1434 1432 1431 1429 1427 1425 1424
1500 1503 1505 1505 1508 1507 1501 1502 1508 1511 1506 1492 1479 1480 1484 1484 1485 1485 1484 1482 1482 1482 1483 1481 1480 1481 1482 1483 1483 1484 1485 1484 1485 1485 1485 1485 1486 1485 1484 1484 1485 1485 1485 1486 1485 1485 1485 1484 1484 1484 1483 1482 1481 1479 1478 1477 1476 1475 1474 1473 1472 1470 1468 1466 1464 1461 1458 1456 1453 1451 1449 1446 1443 1441 1438 1436 1434 1432 1429 1427 1425 1423 1422 1420 1418 1416
1500 1502 1504 1503 1506 1506 1501 1505 1511 1505 1490 1479 1477 1479 1479 1479 1480 1481 1480 1479 1479 1479 1478 1478 1479 1480 1481 1482 1483 1483 1484 1484 1484 1484 1483 1484 1484 1483 1483 1483 1483 1483 1484 1484 1484 1483 1483 1482 1482 1481 1480 1480 1478 1477 1475 1474 1473 1472 1471 1469 1468 1466 1464 1462 1459 1456 1454 1451 1448 1446 1444 1441 1438 1435 1433 1430 1428 1425 1423 1421 1418 1416 1415 1413 1410 1408
1498 1502 1502 1502 1504 1504 1503 1506 1503 1488 1478 1477 1478 1477 1476 1478 1478 1479 1481 1479 1476 1476 1477 1476 1477 1478 1479 1481 1481 1482 1483 1482 1482 1482 1481 1481 1481 1481 1481 1481 1481 1482 1482 1482 1482 1481 1481 1480 1479 1479 1478 1477 1476 1474 1473 1471 1469 1468 1466 1465 1463 1461 1458 1456 1453 1451 1448 1446 1444 1441 1439 1436 1433 1430 1427 1424 1422 1419 1417 1415 1412 1410 1408 1405 1403 1400
1495 1499 1501 1503 1502 1500 1503 1501 1491 1483 1480 1478 1476 1475 1476 1476 1476 1478 1482 1479 1473 1473 1475 1475 1476 1478 1479 1480 1481 1481 1481 1481 1480 1480 1479 1479 1479 1479 1479 1480 1480 1480 1480 1480 1479 1478 1478 1477 1476 1476 1475 1474 1473 1471 1469 1467 1465 1463 1462 1460 1458 1455 1453 1451 1448 1446 1443 1440 1438 1436 1433 1430 1427 1424 1421 1418 1415 1413 1410 1408 1405 1403 1401 1398 1395 1392
1492 1494 1497 1502 1500 1494 1498 1499 1494 1491 1485 1475 1473 1476 1475 1475 1474 1476 1480 1479 1473 1472 1473 1474 1476 1477 1478 1479 1480 1480 1480 1481 1480 1479 1478 1478 1478 1478 1478 1479 1479 1478 1478 1477 1476 1476 1475 1474 1473 1472 1472 1470 1469 1467 1465 1463 1461 1459 1457 1455 1453 1451 1449 1446 1443 1441 1438 1435 1432 1430 1427 1424 1422 1418 1415 1412 1409 1406 1403 1400 1398 1395 1393 1391 1387 1383
1491 1492 1493 1499 1499 1493 1496 1498 1494 1490 1480 1472 1474 1476 1474 1475 1474 1475 1481 1480 1473 1471 1473 1472 1475 1476 1476 1477 1478 1478 1480 1482 1480 1478 1477 1477 1477 1477 1477 1476 1476 1476 1475 1474 1474 1473 1472 1471 1470 1469 1468 1466 1465 1463 1461 1459 1457 1455 1453 1451 1449 1447 1444 1441 1438 1435 1432 1429 1426 1423 1421 1418 1415 1412 1409 1405 1402 1399 1396 1393 1390 1387 1385 1382 1379 1375
1493 1494 1494 1498 1497 1492 1493 1494 1489 1482 1475 1473 1475 1475 1474 1474 1473 1480 1487 1481 1471 1472 1473 1471 1473 1475 1474 1476 1477 1477 1479 1479 1477 1475 1475 1475 1475 1475 1474 1474 1473 1473 1472 1471 1471 1470 1469 1468 1467 1466 1464 1463 1461 1459 1457 1455 1453 1452 1450 1447 1445 1442 1439 1436 1432 1429 1426 1423 1420 1417 1415 1412 1409 1406 1403 1399 1395 1392 1389 1386 1382 1379 1376 1373 1370 1367
1494 1495 1494 1494 1493 1491 1491 1491 1485 1477 1471 1471 1472 1472 1472 1474 1476 1484 1485 1475 1469 1472 1472 1470 1472 1473 1473 1474 1475 1474 1474 1474 1473 1473 1473 1473 1473 1472 1472 1472 1471 1470 1469 1469 1468 1467 1466 1465 1464 1463 1461 1459 1457 1455 1454 1452 1450 1448 1445 1443 1440 1436 1433 1430 1427 1423 1420 1417 1414 1411 1408 1405 1402 1399 1396 1392 1388 1384 1381 1378 1375 1371 1368 1365 1362 1358
1491 1493 1491 1489 1490 1489 1486 1485 1484 1477 1468 1467 1469 1470 1471 1475 1479 1478 1473 1469 1469 1471 1470 1470 1471 1470 1471 1472 1471 1471 1471 1471 1471 1471 1470 1471 1470 1470 1470 1469 1468 1467 1467 1466 1465 1464 1463 1462 1461 1459 1458 1456 1454 1452 1450 1448 1446 1443 1441 1438 1434 1431 1428 1425 1421 1418 1414 1411 1408 1405 1402 1399 1396 1392 1388 1384 1381 1376 1372 1370 1368 1364 1361 1358 1354 1351
1482 1487 1487 1482 1480 1482 1482 1483 1484 1478 1466 1464 1468 1470 1470 1473 1473 1469 1466 1467 1468 1467 1468 1469 1468 1468 1469 1469 1468 1468 1468 1468 1468 1468 1468 1468 1468 1467 1467 1465 1465 1464 1463 1462 1462 1461 1460 1459 1457 1456 1454 1453 1451 1449 1447 1444 1441 1439 1436 1433 1430 1427 1423 1420 1416 1413 1409 1406 1402 1399 1396 1392 1389 1385 1381 1378 1374 1370 1365 1363 1361 1358 1355 1352 1348 1344
1474 1477 1478 1472 1469 1474 1477 1474 1471 1467 1462 1462 1465 1466 1466 1466 1465 1464 1464 1465 1465 1465 1466 1466 1465 1465 1466 1465 1465 1466 1465 1465 1466 1465 1465 1465 1465 1464 1464 1463 1462 1461 1460 1459 1458 1457 1456 1455 1453 1452 1451 1449 1447 1445 1443 1440 1437 1434 1431 1428 1425 1422 1418 1415 1412 1408 1404 1401 1397 1394 1390 1386 1382 1379 1375 1372 1368 1364 1360 1357 1355 1352 1350 1347 1344 1339
1467 1465 1467 1464 1460 1463 1464 1460 1457 1458 1459 1460 1461 1461 1462 1462 1462 1462 1462 1462 1462 1463 1463 1462 1463 1463 1463 1463 1463 1463 1462 1462 1462 1462 1462 1462 1461 1461 1460 1459 1459 1458 1456 1456 1455 1454 1453 1451 1450 1448 1447 1446 1444 1441 1438 1436 1433 1429 1427 1424 1420 1417 1413 1410 1407 1403 1400 1396 1393 1389 1384 1380 1377 1374 1371 1368 1364 1360 1356 1353 1350 1347 1345 1342 1339 1335
1461 1460 1461 1459 1456 1455 1455 1453 1454 1456 1456 1457 1458 1458 1459 1459 1458 1458 1459 1459 1458 1459 1459 1459 1459 1459 1460 1460 1460 1459 1460 1459 1459 1459 1459 1458 1458 1457 1457 1456 1455 1454 1453 1453 1452 1451 1449 1448 1447 1445 1443 1442 1440 1437 1434 1432 1429 1425 1422 1420 1417 1413 1409 1405 1402 1398 1395 1392 1387 1383 1379 1375 1371 1369 1366 1363 1360 1356 1352 1350 1346 1343 1341 1338 1335 1331
1459 1459 1458 1456 1455 1456 1454 1452 1453 1454 1453 1453 1455 1455 1455 1455 1454 1454 1454 1454 1454 1454 1455 1455 1456 1456 1456 1457 1456 1456 1456 1456 1456 1456 1455 1455 1454 1454 1453 1452 1451 1450 1450 1449 1448 1447 1446 1444 1443 1441 1439 1437 1435 1433 1430 1428 1425 1423 1419 1416 1413 1410 1405 1402 1398 1394 1390 1387 1382 1379 1375 1370 1366 1362 1359 1356 1354 1351 1348 1346 1343 1340 1337 1334 1330 1327
1457 1456 1454 1451 1452 1452 1450 1450 1450 1450 1449 1450 1451 1451 1451 1451 1450 1450 1450 1450 1450 1450 1451 1451 1452 1452 1452 1453 1453 1453 1452 1452 1452 1452 1451 1451 1451 1450 1449 1449 1448 1447 1446 1445 1444 1443 1442 1440 1439 1437 1435 1433 1431 1429 1426 1424 1422 1419 1416 1413 1410 1406 1402 1398 1395 1390 1386 1383 1379 1374 1370 1365 1360 1357 1354 1351 1349 1347 1344 1341 1339 1336 1333 1330 1327 1323
1453 1451 1448 1447 1448 1447 1446 1447 1447 1447 1446 1446 1446 1446 1447 1447 1446 1446 1447 1447 1446 1447 1447 1447 1447 1448 1448 1449 1449 1449 1448 1448 1448 1448 1447 1447 1447 1446 1446 1445 1444 1444 1443 1442 1441 1439 1438 1436 1435 1433 1431 1429 1427 1425 1422 1420 1418 1416 1412 1409 1406 1402 1399 1395 1390 1386 1383 1379 1374 1368 1363 1360 1357 1354 1350 1347 1344 1342 1340 1337 1335 1331 1327 1325 1324 1321
1448 1446 1443 1445 1448 1446 1443 1443 1444 1444 1443 1441 1440 1441 1442 1443 1443 1442 1442 1443 1443 1443 1443 1443 1443 1444 1444 1445 1445 1445 1444 1444 1444 1443 1443 1443 1442 1442 1442 1441 1441 1440 1439 1438 1437 1436 1434 1433 1431 1429 1427 1426 1423 1421 1418 1417 1415 1413 1409 1406 1403 1400 1396 1391 1386 1382 1379 1373 1368 1363 1360 1357 1354 1350 1347 1343 1339 1336 1333 1332 1331 1329 1325 1321 1319 1318
1441 1440 1439 1442 1442 1439 1437 1438 1439 1439 1438 1436 1437 1438 1438 1438 1439 1438 1439 1439 1439 1439 1439 1439 1439 1440 1440 1440 1440 1440 1440 1440 1439 1439 1439 1439 1438 1438 1438 1437 1437 1436 1435 1434 1433 1432 1431 1429 1427 1425 1424 1422 1419 1417 1415 1413 1412 1409 1406 1404 1401 1397 1392 1388 1384 1378 1373 1368 1364 1361 1358 1354 1351 1347 1344 1340 1336 1332 1328 1324 1323 1323 1321 1318 1315 1313